La Ceiba, Honduras

3:57 PM CST on April 21, 2018 (GMT -0600)
Goloson International

Weather History for MHLC - October, 2013

Change the Weather History Date:

Friday, October 18, 2013

  Actual Average Record
Temperature  
Mean Temperature 80 °F -  
Max Temperature 88 °F 82 °F 91 °F (2006)
Min Temperature 71 °F 69 °F 68 °F (2000)
Cooling Degree Days 14    
Growing Degree Days 30 (Base 50)    
Moisture  
Dew Point 75 °F    
Average Humidity 79    
Maximum Humidity 94    
Minimum Humidity 66    
Precipitation  
Precipitation 0.00 in 0.65 in - ()
Sea Level Pressure  
Sea Level Pressure 29.86 in    
Wind  
Wind Speed 4 mph ()    
Max Wind Speed 9 mph    
Max Gust Speed -    
Visibility 6.9 miles    
Events      
Averages and records for this station are not official NWS values.
T = Trace of Precipitation, MM = Missing Value Source: Averaged Metar Reports

Daily Weather History Graph

Daily Weather History Graph

Search for Another Location

Airport or City:

Astronomy

Oct. 18, 2013 Rise Set
Actual Time 5:40 AM CST 5:24 PM CST
Civil Twilight 5:18 AM CST 5:46 PM CST
Nautical Twilight 4:53 AM CST 6:11 PM CST
Astronomical Twilight 4:28 AM CST 6:36 PM CST
Moon 5:17 PM CST (10/18) 5:15 AM CST (10/18)
Length of Visible Light 12h 28m
Length of Day
11h 44m
Full, 100% of the Moon is Illuminated
Oct 18
Full
Oct 18
Full
Oct 26
Last Quarter
Nov 3
New
Nov 9
First Quarter

Hourly Weather History & Observations

Time (CST) Temp. Heat Index Dew Point Humidity Pressure Visibility Wind Dir Wind Speed Gust Speed Precip Events Conditions
12:00 AM 74 °F - 72 °F 91% 29.88 in 12 mi East 3.5 mph - -   Partly Cloudy
12:00 AM 75.2 °F - 71.6 °F 89% 29.86 in 6.2 mi East 3.5 mph - N/A   Scattered Clouds
6:00 AM 71.6 °F - 69.8 °F 94% 29.86 in 6.2 mi South 2.3 mph - N/A   Scattered Clouds
7:00 AM 77.0 °F - 73.4 °F 89% 29.89 in 6.2 mi ESE 2.3 mph - N/A   Scattered Clouds
8:00 AM 87.8 °F 97.6 °F 75.2 °F 66% 29.92 in 6.2 mi SSW 2.3 mph - N/A   Partly Cloudy
9:00 AM 87.8 °F 97.6 °F 75.2 °F 66% 29.92 in 6.2 mi SSW 2.3 mph - N/A   Partly Cloudy
10:00 AM 86.0 °F 95.1 °F 75.2 °F 70% 29.92 in 6.2 mi NW 4.6 mph - N/A   Scattered Clouds
11:00 AM 87.8 °F 97.6 °F 75.2 °F 66% 29.89 in 6.2 mi NNW 6.9 mph - N/A   Scattered Clouds
12:00 PM 86.0 °F 99.3 °F 78.8 °F 79% 29.89 in 6.2 mi North 6.9 mph - N/A   Scattered Clouds
1:00 PM 87.8 °F 99.7 °F 77.0 °F 70% 29.83 in 6.2 mi North 6.9 mph - N/A   Scattered Clouds
2:00 PM 87.8 °F 99.7 °F 77.0 °F 70% 29.80 in 6.2 mi North 9.2 mph - N/A   Mostly Cloudy
3:00 PM 86 °F - 77 °F 69% 29.82 in 12 mi NNW 6.9 mph - -   Haze
3:00 PM 86.0 °F 96.9 °F 77.0 °F 74% 29.80 in 6.2 mi WSW 6.9 mph - N/A   Mostly Cloudy
4:00 PM 84.2 °F 94.1 °F 77.0 °F 79% 29.80 in 6.2 mi North 8.1 mph - N/A   Mostly Cloudy
5:00 PM 84.2 °F 94.1 °F 77.0 °F 79% 29.83 in 6.2 mi NE 8.1 mph - N/A   Mostly Cloudy
6:00 PM 82 °F - 75 °F 73% 29.85 in 9 mi NE 6.9 mph - -   Scattered Clouds
6:00 PM 82.4 °F 89.5 °F 75.2 °F 79% 29.83 in 6.2 mi NE 6.9 mph - N/A   Mostly Cloudy
7:00 PM 78.8 °F - 75.2 °F 89% 29.86 in 6.2 mi South 3.5 mph - N/A   Mostly Cloudy
10:00 PM 77.0 °F - 75.2 °F 94% 29.86 in 6.2 mi ESE 2.3 mph - N/A   Scattered Clouds
11:00 PM 75.2 °F - 73.4 °F 94% 29.86 in 6.2 mi NE 2.3 mph - N/A   Scattered Clouds